Location: Dittelspoint
(48.7198°N, 10.7214°E)
Time: 17:16:03
(UTC+00:00)

BREEZE M DEB (TANK) - Pass Details

Date: 09 April 2020
Orbit: 313 x 13666 km, 49.6° (Epoch: 23 May)

Event Time Altitude Azimuth Distance (km) Brightness Sun altitude
Rises 20:42:00 0° 259° (W) 5,143 8.2 -23.7°
Reaches altitude 10° 20:46:46 10° 260° (W) 2,911 6.9 -24.3°
Enters shadow 20:51:30 53° 266° (W) 678 3.4 -24.8°
